Flag for U.S.A. Weather past 2 weeks in Butte, Montana, U.S.A.

Now
79 °F

Sunny.


Feels Like: 78 °F
Forecast: 54 / 76 °F
Wind: 16 mph from Southeast

Location: Mooney Airport

Current Time: Aug 29, 2015 at 1:00:15 PM

Latest Report: Aug 29, 2015 at 11:53 AM


Visibility: 7 mi

Pressure: 29.81 "Hg (24.60 "Hg at 1685m altitude)

Humidity: 25%

Dew point: 40 °F

Location of ButteLocation

Historic Weather in Butte — Graph

°F

Butte temperature yesterday

Maximum temperature yesterday: 83 °F (at 4:53 PM)
Minimum temperature yesterday: 44 °F (at 6:53 AM)
Average temperature yesterday: 63 °F

Past Weeks' High & Low Weather Summary

 TemperatureHumidityPressure
High90 °F (Aug 14, 2:53 PM)90% (Aug 15, 12:53 AM)30.24 "Hg (Aug 15, 12:53 AM)
Low34 °F (Aug 23, 5:53 AM)10% (Aug 26, 1:53 PM)29.63 "Hg (Aug 21, 4:53 PM)
Average61 °F46%30.00 "Hg
* Reported Aug 14 11:53 AM — Aug 29 11:53 AM, Butte, Weather by CustomWeather, © 2015

Note: Actual official high and low records may vary slightly from our data, if they occured in-between our weather recording intervals... More about our weather records

Advertising

Butte weather history for previous 24 hours

 ConditionsComfort  
Time TempWeatherWind HumidityBarometerVisibility
11:53 AM
Sat, Aug 29
79 °FSunny.16 mph25%29.81 "Hg7 mi
10:53 AM76 °FSunny.13 mph27%29.83 "Hg4 mi
9:53 AM75 °FHaze.12 mph27%29.85 "Hg4 mi
9:03 AM69 °FHaze.8 mph36%30.06 "Hg2 mi
8:53 AM66 °FHaze.5 mph42%29.88 "Hg2 mi
7:53 AM56 °FScattered clouds.5 mph62%29.91 "Hg1 mi
6:53 AM55 °FPassing clouds.No wind64%29.91 "Hg2 mi
5:53 AM56 °FPassing clouds.No wind62%29.93 "Hg2 mi
4:53 AM58 °FClear.No wind56%29.92 "Hg2 mi
3:53 AM58 °FHaze.3 mph56%29.93 "Hg2 mi
2:53 AM60 °FClear.6 mph49%29.94 "Hg2 mi
1:53 AM59 °FOvercast.6 mph51%29.95 "Hg2 mi
12:53 AM62 °FOvercast.5 mph46%29.96 "Hg2 mi
11:53 PM
Fri, Aug 28
63 °FOvercast.5 mph43%29.99 "Hg2 mi
10:53 PM67 °FHaze.No wind35%30.01 "Hg2 mi
9:53 PM68 °FMostly cloudy.6 mph33%30.01 "Hg2 mi
8:53 PM72 °FHaze.10 mph29%30.01 "Hg2 mi
7:53 PM76 °FPartly sunny.16 mph23%29.98 "Hg6 mi
6:53 PM80 °FBroken clouds.7 mph17%29.95 "Hg5 mi
5:53 PM81 °FHaze.5 mph18%29.95 "Hg5 mi
4:53 PM83 °FSunny.6 mph15%29.95 "Hg6 mi
3:53 PM80 °FSunny.6 mph20%29.98 "Hg4 mi
2:53 PM80 °FHaze.5 mph20%30.01 "Hg4 mi
1:53 PM79 °FPartly sunny.9 mph20%30.01 "Hg3 mi
Weather by CustomWeather, © 2015

See weather overviewHow to use our weather pages